User: anonymous   Login
Location: *
(90.0000°N, 180.0000°W)
Time: 09:25:01
(UTC+01:00)
Language:

Cosmos 1825 - Orbit

View from above orbital plane
View from above orbital plane
View from above satellite
View from above satellite

Ground track
Ground track

The orbit data is extracted from the following two-line orbital elements,

1 17566U 87024A   14303.56094827  .00004884  00000-0  27228-3 0  1358
2 17566 082.5060 159.9424 0003456 330.4461 029.6575 15.13372907508219
Epoch (UTC): 30 October 2014 13:27:45
Eccentricity: 0.0003456
inclination: 82.5060°
perigee height: 523 km
apogee height: 528 km
right ascension of ascending node: 159.9424°
argument of perigee: 330.4461°
revolutions per day: 15.13372907
mean anomaly at epoch: 29.6575°
orbit number at epoch: 50821

The dashed part of the orbit path shows where the satellite is in the earth's shadow,  

DLR